Weather in Yertsevo

Russia / Arkhangel'skaya Oblast'     60°47′48″N   40°05′07″E
temp.,
°C
wind,
m/s
gust,
m/s
humid.,
%
clouds,
%
prec.,
mm/h
press.,
hPa
HPBL,
m
25 february, thu
thu2500:00−14s41093100 0.3 1020552
03:00−14s51095100 1.7 1016503
06:00−14sse41095100 1.6 1011498
09:00−14sse3795100 2.8 1010411
12:00−12se3594100 0.3 1009371
15:00−10se2393100 0.6 1010383
18:00−15se229796 0.0 101131
21:00−17sse239881 0.1 101287
26 february, fri
fri2600:00−16sse249888 0.0 100988
03:00−13sse369791 0.1 1008155
06:00−12se3696100 0.1 1005199
09:00−11se4895100 0.4 1001244
12:00−9ese51095100 2.4 997336
15:00−10ese51195100 7.7 995450
18:00−10e4994100 2.7 994490
21:00−12ene4994100 3.3 997483
27 february, sat
sat2700:00−13ne3894100 0.4 1000433
03:00−15nne2796100 0.4 1003207
06:00−18nne259793 0.0 100599
09:00−17nne259650 0.0 1007172
12:00−13n249442 0.0 1009320
15:00−11n249468 0.0 1010375
18:00−13nnw2397100 0.0 101144
21:00−13n129797 0.1 101443
28 february, sun
sun2800:00−13nnw129782 0.1 101435
03:00−14nnw129780 0.1 101620
06:00−13nnw249784 0.1 101699
09:00−10n279691 0.1 1018300
12:00−6nnw2495100 0.1 1018371
15:00−5nw2495100 0.1 1019448
18:00−7w2496100 0.1 1019282
21:00−7wsw2797100 0.1 1020294
1 march, mon
mon100:00−10wsw279891 0.0 1019147
03:00−8wsw389694 0.1 1017248
06:00−4wsw41097100 0.1 1015409
09:000wsw51095100 0.1 1011665
12:000w51196100 0.1 1010946
15:000w41199100 0.5 1007687
18:00+1w51298100 1.0 1004792
21:00+1wnw51398100 2.9 1002922